Location: ?????
(37.9782°N, 23.4270°E)
Time: 05:35:50
(UTC+00:00)

Daily predictions for brighter satellites

Satellite Brightness Start Highest point End
(mag) Time Altitude Azimuth Time Altitude Azimuth Time Altitude Azimuth
Cosmos 1980 Rocket 4.3 02:03:07 21° ESE 02:03:07 21° ESE 02:05:08 10° SE
COSMOS 2455 4.2 02:23:49 33° NE 02:24:07 33° NE 02:29:29 10° ESE
CZ-3 R/B 3.9 02:27:45 44° WSW 02:32:26 50° SSW 02:41:57 10° SE
NOSS 2-1 (D) 4.4 03:07:47 44° ENE 03:07:47 44° ENE 03:12:34 10° SE
Meteor 2-3 Rocket 4.4 03:02:58 10° S 03:08:32 53° E 03:14:03 10° NNE
USA 59 Rocket 0.7 03:08:36 50° ENE 03:08:36 50° ENE 03:13:33 10° SE
Cosmos 2098 Rocket 4.3 03:11:48 44° SSW 03:11:48 44° SSW 03:15:41 10° S
Cosmos 372 Rocket 3.9 03:10:52 80° NE 03:11:00 81° ENE 03:16:03 10° SSE
Cosmos 1937 Rocket 4.3 03:09:17 28° NNE 03:11:36 46° ENE 03:16:31 10° SE
COSMOS 2406 3.0 03:13:02 58° SSW 03:14:14 84° WNW 03:19:56 10° NNE
Aureole 1 Rocket 4.2 03:13:02 35° NNW 03:16:30 82° WSW 03:23:56 10° SSE
NOSS 2-1 (E) 4.3 03:18:24 41° NNE 03:18:59 44° NE 03:23:46 10° SE
Cosmos 2082 Rocket 3.7 03:23:08 22° N 03:23:08 22° N 03:25:18 10° N
Cosmos 1933 4.4 03:23:51 35° S 03:23:51 35° S 03:26:07 10° S
SL-16 R/B 3.5 03:19:11 14° N 03:23:39 37° ENE 03:28:51 10° SE
CZ-4 R/B 3.9 03:26:47 10° NNE 03:31:25 74° ESE 03:36:00 10° S
NOSS 2-1 (C) 3.5 03:36:54 55° NNW 03:37:47 82° ENE 03:43:02 10° SE
Cosmos 1606 Rocket 3.4 03:37:38 56° NW 03:38:25 71° W 03:42:45 10° S
NOAA 12 4.0 03:34:37 10° NNE 03:39:56 89° WNW 03:45:10 10° SSW
Helios 1A Rocket 4.0 03:36:56 10° SE 03:39:58 33° ENE 03:42:22 14° NNE
Cosmos 1980 Rocket 3.2 03:44:55 27° WSW 03:44:55 27° WSW 03:48:31 10° SSW
Cosmos 2026 Rocket 3.9 03:40:04 10° S 03:46:07 89° E 03:52:14 10° N
Cosmos 2278 4.4 03:42:22 10° NNW 03:47:46 51° ENE 03:53:14 10° SE
Cosmos 2369 4.0 03:51:16 33° WNW 03:53:12 45° WSW 03:58:31 10° S
SL-4 R/B 4.1 03:54:50 10° N 03:55:13 10° NNE 03:55:48 10° NNE
NOSS 3-1 (C) 4.1 03:52:30 18° NW 03:58:35 83° WSW 04:07:50 10° SSE
Cosmos 841 Rocket 4.4 04:00:24 27° NW 04:00:24 27° NW 04:04:09 10° N
Cosmos 1726 Rocket 3.6 04:01:10 24° NNW 04:03:25 49° W 04:07:24 10° SSW
Cosmos 405 Rocket 3.4 04:04:07 10° S 04:07:13 45° E 04:10:22 10° NNE
Cosmos 1733 4.2 04:06:35 10° SE 04:07:09 15° SE 04:07:09 15° SE
COSMOS 2455 3.3 04:07:00 23° WNW 04:10:03 39° WSW 04:15:32 10° S
Tiangong -1.2 04:09:58 30° WSW 04:10:49 36° SSW 04:13:48 10° SE
Cosmos 1092 Rocket 4.0 04:06:39 10° SSW 04:12:52 64° W 04:19:05 10° N
Cosmos 1626 Rocket 3.8 04:11:42 10° S 04:16:06 71° E 04:20:29 10° NNE
Cosmos 2360 Rocket 3.0 04:11:02 10° NNW 04:16:31 50° ENE 04:21:56 10° SE
Cosmos 2333 Rocket 2.4 04:11:45 10° NNW 04:17:33 78° ENE 04:23:15 10° SSE
Cosmos 1892 Rocket 4.3 04:16:59 10° SW 04:20:46 29° WNW 04:24:37 10° NNW
Meteor 2-2 Rocket 4.2 04:17:54 10° NNW 04:23:37 78° W 04:29:25 10° S
SMAP 4.2 04:20:20 10° NNE 04:24:49 46° E 04:29:17 10° S
COSMO-SKYMED 1 2.8 04:24:04 10° S 04:27:59 44° W 04:31:56 10° NNW
Cosmos-2242 2.9 04:25:52 10° NNW 04:30:02 59° W 04:34:07 10° S
Cosmos 2219 Rocket 3.4 04:28:40 10° N 04:34:00 41° ENE 04:39:16 10° SE
Cosmos 2322 Rocket 2.2 04:34:13 10° NNW 04:39:56 90° ENE 04:45:35 10° SSE
ATLAS 2AS CENTAUR R/B 2.9 04:37:28 10° SSW 04:44:35 85° ESE 04:51:33 10° NNE
Meteor 2-6 Rocket 4.4 04:40:26 10° N 04:46:25 90° W 04:52:20 10° S
SL-08 ROCKET BODY 4.4 04:46:16 10° SSW 04:52:03 62° W 04:57:50 10° N
BREEZE M DEB (TANK) 2.7 04:50:05 11° W 04:52:04 29° NNW 04:55:31 10° NE
Cosmos 1812 Rocket 4.1 04:48:59 10° N 04:53:17 63° E 04:57:34 10° SSE
Cosmos 1602 Rocket 3.6 04:50:08 10° S 04:54:33 83° W 04:59:01 10° N
IGS 5A 3.9 04:51:05 10° N 04:54:46 36° WNW 04:58:27 10° SW
OAO 2 Rocket 4.0 04:50:37 10° WSW 04:55:40 56° S 05:00:39 10° E
BREEZE-M DEB (TANK) 4.0 04:55:37 10° NNW 04:57:04 18° NE 04:59:12 10° E
USA 59 Rocket 2.1 04:54:42 10° W 04:57:21 15° WSW 05:00:27 10° SSW
Cosmos 2333 4.3 04:52:00 10° NNW 04:57:45 89° ENE 05:03:25 10° SSE
Cosmos 1484 Rocket 3.6 04:55:09 10° NNW 04:57:51 22° WNW 05:00:29 10° WSW
SJ-12 3.9 04:56:27 10° NNE 05:00:16 80° ESE 05:04:05 10° S
Cosmos 2058 Rocket 4.2 04:57:22 10° NW 05:00:55 24° W 05:04:25 10° SW
Cosmos 1437 Rocket 3.4 04:58:55 10° N 05:02:17 50° ENE 05:05:41 10° SSE
ARIANE 5 R/B 2.8 04:58:51 10° NNE 05:04:05 82° ESE 05:09:18 10° SSW
Cosmos 1743 2.8 05:01:21 10° SSW 05:04:23 38° W 05:07:26 10° N
NOSS 3-1 (A) 4.3 04:58:58 10° NW 05:06:36 67° WSW 05:15:48 10° SSE
